Location: Bruderhein
(53.8035°N, 112.9265°W)
Time: 21:22:01
(UTC+00:00)

Gurwin Techsat 1B - Pass Details

Date: 18 April 2024
Orbit: 811 x 812 km, 98.9° (Epoch: 26 May)

Event Time Altitude Azimuth Distance (km) Brightness Sun altitude
Rises 09:28:06 0° 29° (NNE) 3,350 13.4 -20.5°
Reaches altitude 10° 09:32:01 10° 58° (ENE) 2,411 12.0 -20.2°
Maximum altitude 09:34:15 13° 83° (E) 2,227 11.4 -20.0°
Drops below altitude 10° 09:36:29 10° 108° (ESE) 2,403 11.2 -19.9°
Sets 09:40:21 0° 137° (SE) 3,328 11.7 -19.6°
